WXM80 ListenWXM80 Stop

You find our weather info also at:

UK Metoffice

WeatherCloud

Weather Underground

Northeastern Weather Network

AWEKAS

Citizen Weather Observer Program (CWOP)

HAMweather, WeatherForYou, PWS Weather


Weather Underground History page Text

Daily Summary for March 08, 2018 Units:  Metric    English   Both
« Previous Day
Next Day »
Daily Weekly Monthly Yearly Custom
  High: Low: Average:
Temperature: 7.7 °C 0.9 °C 3.3 °C
Dew Point: 2.3 °C -2.9 °C -0.2 °C
Humidity: 96 % 63 % 79 %
Wind Speed: 17.7 km/h 0.3 km/h 7.4 km/h
Wind Gust: 29 km/h - -
Wind:- - West
Pressure: 997.5 hPa 994.5 hPa -
Precipitation: 0.76 mm    
Historical Graphs
 
 
Tabular Data for March 08, 2018
Time Temperature Dew Point Pressure Wind Wind Speed Wind Gust Humidity Rainfall Rate (Hourly)
00:02 1.1 °C 0.5 °C 994.5 hPa WNW 17.7 km/h 24.1 km/h 96 % 0.76 mm
00:07 1.1 °C 0.5 °C 994.5 hPa NW 6.1 km/h 14.8 km/h 96 % 0.76 mm
00:12 1.1 °C 0.5 °C 994.5 hPa WNW 9.8 km/h 16.7 km/h 96 % 0.51 mm
00:17 1 °C 0.4 °C 994.5 hPa WNW 12.7 km/h 22.2 km/h 96 % 0.51 mm
00:22 1 °C 0.4 °C 994.5 hPa West 11.7 km/h 18.5 km/h 96 % 0.51 mm
00:27 1.1 °C 0.5 °C 994.5 hPa NW 11.6 km/h 20.4 km/h 96 % 0.25 mm
00:32 1 °C 0.4 °C 994.8 hPa WNW 13.4 km/h 22.2 km/h 96 % 0.51 mm
00:37 1 °C 0.4 °C 994.8 hPa NW 11.6 km/h 20.4 km/h 96 % 0.51 mm
00:42 1 °C 0.4 °C 994.8 hPa West 11.3 km/h 25.9 km/h 96 % 0.51 mm
00:47 0.9 °C 0.4 °C 995.1 hPa WNW 10 km/h 11.1 km/h 96 % 0.51 mm
00:52 0.9 °C 0.4 °C 994.8 hPa West 9.5 km/h 18.5 km/h 96 % 0.25 mm
00:57 0.9 °C 0.4 °C 995.1 hPa NNW 7.9 km/h 18.5 km/h 96 % 0.25 mm
01:02 0.9 °C 0.4 °C 995.1 hPa West 8.2 km/h 16.7 km/h 96 % 0.25 mm
01:07 0.9 °C 0.4 °C 995.1 hPa NW 8.2 km/h 14.5 km/h 96 % 0.25 mm
01:13 0.9 °C 0.4 °C 995.5 hPa SW 10.6 km/h 20.4 km/h 96 % 0.25 mm
01:18 1 °C 0.4 °C 995.5 hPa WNW 4.8 km/h 11.3 km/h 96 % 0.25 mm
01:23 1 °C 0.4 °C 995.5 hPa WNW 7.6 km/h 14.8 km/h 96 % 0.25 mm
01:28 1 °C 0.4 °C 995.5 hPa West 9.7 km/h 14.8 km/h 96 % 0.25 mm
01:33 1 °C 0.4 °C 995.5 hPa NW 9.3 km/h 18.5 km/h 96 % 0 mm
01:38 1 °C 0.4 °C 995.5 hPa WNW 11.3 km/h 18.5 km/h 96 % 0 mm
01:43 1.1 °C 0.5 °C 995.5 hPa WNW 6.4 km/h 16.7 km/h 96 % 0 mm
01:48 1.1 °C 0.5 °C 995.5 hPa NNW 3.5 km/h 12.9 km/h 96 % 0.25 mm
01:53 1.1 °C 0.5 °C 995.5 hPa WNW 6.3 km/h 9.3 km/h 96 % 0.25 mm
01:58 1.1 °C 0.5 °C 995.1 hPa NW 11.7 km/h 22.5 km/h 96 % 0.25 mm
02:03 1.1 °C 0.3 °C 995.1 hPa NW 11.3 km/h 22.5 km/h 95 % 0.25 mm
02:08 1.1 °C 0.4 °C 995.5 hPa WNW 12.2 km/h 24.1 km/h 95 % 0.25 mm
02:13 1.1 °C 0.4 °C 995.5 hPa NW 15.4 km/h 29 km/h 95 % 0.25 mm
02:18 1.1 °C 0.4 °C 995.1 hPa WNW 11.6 km/h 20.4 km/h 95 % 0.25 mm
02:23 1.2 °C 0.4 °C 995.1 hPa NW 10.3 km/h 25.9 km/h 95 % 0.25 mm
02:28 1.2 °C 0.4 °C 995.1 hPa WNW 10.1 km/h 16.7 km/h 95 % 0.25 mm
02:33 1.2 °C 0.4 °C 995.1 hPa NNW 11.3 km/h 18.5 km/h 95 % 0.25 mm
02:38 1.2 °C 0.5 °C 995.1 hPa WNW 12.2 km/h 24.1 km/h 95 % 0.25 mm
02:43 1.2 °C 0.5 °C 995.1 hPa NNW 9.2 km/h 20.4 km/h 95 % 0.25 mm
02:48 1.2 °C 0.5 °C 995.1 hPa WNW 10 km/h 22.2 km/h 95 % 0 mm
02:54 1.2 °C 0.5 °C 995.1 hPa NW 8.9 km/h 9.7 km/h 95 % 0 mm
02:59 1.2 °C 0.5 °C 994.8 hPa NW 5 km/h 18.5 km/h 95 % 0 mm
03:04 1.2 °C 0.5 °C 995.1 hPa NW 14.8 km/h 22.2 km/h 95 % 0.25 mm
03:09 1.2 °C 0.5 °C 994.8 hPa WNW 9.2 km/h 16.7 km/h 95 % 0.25 mm
03:14 1.3 °C 0.4 °C 995.1 hPa NW 7.9 km/h 18.5 km/h 94 % 0.25 mm
03:19 1.3 °C 0.4 °C 995.1 hPa WNW 6 km/h 14.8 km/h 94 % 0.25 mm
03:24 1.3 °C 0.4 °C 995.1 hPa West 6.8 km/h 14.8 km/h 94 % 0.25 mm
03:29 1.3 °C 0.4 °C 995.1 hPa West 7.9 km/h 16.7 km/h 94 % 0.25 mm
03:34 1.3 °C 0.4 °C 995.1 hPa NW 10.9 km/h 16.7 km/h 94 % 0.25 mm
03:39 1.3 °C 0.4 °C 995.1 hPa West 7.7 km/h 11.1 km/h 94 % 0.25 mm
03:44 1.3 °C 0.4 °C 994.8 hPa NW 10.1 km/h 16.7 km/h 94 % 0.25 mm
03:49 1.3 °C 0.4 °C 995.1 hPa NNW 10.8 km/h 20.4 km/h 94 % 0.25 mm
03:54 1.3 °C 0.4 °C 995.1 hPa NW 7.4 km/h 16.1 km/h 94 % 0.25 mm
03:59 1.3 °C 0.4 °C 995.1 hPa NW 2.7 km/h 16.7 km/h 94 % 0.25 mm
04:04 1.3 °C 0.4 °C 995.1 hPa NW 10 km/h 18.5 km/h 94 % 0 mm
04:09 1.3 °C 0.4 °C 994.8 hPa NNW 8.7 km/h 14.8 km/h 94 % 0 mm
04:14 1.3 °C 0.3 °C 995.1 hPa WNW 4.8 km/h 18.5 km/h 93 % 0 mm
04:19 1.3 °C 0.3 °C 995.1 hPa NW 5.8 km/h 11.1 km/h 93 % 0 mm
04:25 1.3 °C 0.3 °C 995.1 hPa NNW 3.5 km/h 13 km/h 93 % 0 mm
04:30 1.3 °C 0.3 °C 995.1 hPa NW 6.6 km/h 16.7 km/h 93 % 0 mm
04:35 1.3 °C 0.3 °C 995.1 hPa WNW 7.6 km/h 20.4 km/h 93 % 0 mm
04:40 1.3 °C 0.3 °C 995.1 hPa West 7.6 km/h 13 km/h 93 % 0 mm
04:45 1.3 °C 0.3 °C 995.1 hPa NNW 6.4 km/h 13 km/h 93 % 0 mm
04:50 1.3 °C 0.3 °C 995.5 hPa NW 6.8 km/h 14.8 km/h 93 % 0 mm
04:55 1.3 °C 0.3 °C 995.1 hPa NW 5.1 km/h 14.8 km/h 93 % 0 mm
05:00 1.3 °C 0.2 °C 995.1 hPa NW 8.5 km/h 16.7 km/h 92 % 0 mm
05:05 1.3 °C 0.2 °C 995.5 hPa NW 5.3 km/h 11.1 km/h 92 % 0 mm
05:10 1.3 °C 0.2 °C 995.5 hPa NW 8.4 km/h 18.5 km/h 92 % 0 mm
05:15 1.3 °C 0.2 °C 995.5 hPa NW 8.9 km/h 16.7 km/h 92 % 0 mm
05:20 1.3 °C 0.2 °C 995.5 hPa WNW 6.1 km/h 11.1 km/h 92 % 0 mm
05:25 1.4 °C 0.2 °C 995.5 hPa WNW 10.8 km/h 20.4 km/h 92 % 0 mm
05:30 1.4 °C 0.2 °C 995.5 hPa WNW 9 km/h 14.8 km/h 92 % 0 mm
05:35 1.4 °C 0.2 °C 995.5 hPa NNW 11.4 km/h 16.7 km/h 92 % 0 mm
05:40 1.4 °C 0.2 °C 995.8 hPa WNW 9.3 km/h 14.8 km/h 92 % 0 mm
05:45 1.4 °C 0.2 °C 995.8 hPa NW 9.7 km/h 16.1 km/h 92 % 0 mm
05:50 1.4 °C 0.2 °C 995.8 hPa WNW 7.6 km/h 16.7 km/h 92 % 0 mm
05:55 1.4 °C 0.2 °C 995.8 hPa NW 6 km/h 14.8 km/h 92 % 0 mm
06:00 1.4 °C 0.2 °C 996.2 hPa WNW 8 km/h 14.5 km/h 92 % 0 mm
06:05 1.4 °C 0.2 °C 996.2 hPa NW 3.4 km/h 9.3 km/h 92 % 0 mm
06:10 1.4 °C 0.2 °C 996.2 hPa NW 7.1 km/h 13 km/h 92 % 0 mm
06:16 1.4 °C 0.2 °C 996.2 hPa WNW 4.8 km/h 16.1 km/h 92 % 0 mm
06:21 1.4 °C 0.3 °C 996.2 hPa WNW 3.2 km/h 16.1 km/h 92 % 0 mm
06:26 1.4 °C 0.3 °C 996.2 hPa WNW 8 km/h 19.3 km/h 92 % 0 mm
06:31 1.4 °C 0.2 °C 996.5 hPa WNW 7.6 km/h 7.6 km/h 92 % 0 mm
06:36 1.4 °C 0.3 °C 996.5 hPa WNW 3.2 km/h 12.9 km/h 92 % 0 mm
06:41 1.4 °C 0.3 °C 996.5 hPa WNW 8 km/h 19.3 km/h 92 % 0 mm
06:46 1.4 °C 0.3 °C 996.5 hPa WNW 8 km/h 16.1 km/h 92 % 0 mm
06:51 1.4 °C 0.1 °C 996.8 hPa WNW 8 km/h 19.3 km/h 91 % 0 mm
06:56 1.4 °C 0.1 °C 996.5 hPa WNW 4.8 km/h 16.1 km/h 91 % 0 mm
07:01 1.5 °C 0.2 °C 996.8 hPa West 6 km/h 11.3 km/h 91 % 0 mm
07:06 1.5 °C 0.2 °C 996.8 hPa West 5 km/h 14.8 km/h 91 % 0 mm
07:11 1.5 °C 0.2 °C 996.8 hPa WNW 4.8 km/h 13 km/h 91 % 0 mm
07:16 1.6 °C 0.2 °C 996.8 hPa West 6 km/h 13 km/h 91 % 0 mm
07:21 1.6 °C 0.4 °C 996.8 hPa West 9.3 km/h 16.7 km/h 92 % 0 mm
07:26 1.6 °C 0.3 °C 996.8 hPa NW 5.6 km/h 13 km/h 91 % 0 mm
07:31 1.7 °C 0.3 °C 996.8 hPa NW 1.1 km/h 7.4 km/h 91 % 0 mm
07:36 1.7 °C 0.3 °C 996.8 hPa WNW 9.8 km/h 14.8 km/h 91 % 0 mm
07:41 1.7 °C 0.4 °C 996.8 hPa WSW 7.6 km/h 14.8 km/h 91 % 0 mm
07:46 1.8 °C 0.4 °C 996.8 hPa WNW 2.6 km/h 9.3 km/h 91 % 0 mm
07:51 1.9 °C 0.6 °C 996.8 hPa WSW 6.3 km/h 13 km/h 91 % 0 mm
07:56 2.1 °C 0.7 °C 996.8 hPa SW 4.2 km/h 6.4 km/h 91 % 0 mm
08:01 2.3 °C 0.8 °C 997.2 hPa NW 10 km/h 22.2 km/h 90 % 0 mm
08:06 2.5 °C 1 °C 997.2 hPa NW 10.1 km/h 13 km/h 90 % 0 mm
08:11 2.7 °C 1.1 °C 997.2 hPa WNW 7.7 km/h 13 km/h 89 % 0 mm
08:16 2.8 °C 1.2 °C 997.2 hPa NW 4 km/h 14.8 km/h 89 % 0 mm
08:21 2.9 °C 1.2 °C 996.8 hPa WNW 1.6 km/h 11.1 km/h 88 % 0 mm
08:26 3 °C 1.1 °C 997.2 hPa West 10.1 km/h 14.8 km/h 87 % 0 mm
08:32 3.1 °C 0.9 °C 997.2 hPa WNW 4.7 km/h 11.1 km/h 86 % 0 mm
08:37 3.1 °C 1 °C 997.2 hPa WNW 4.8 km/h 11.1 km/h 86 % 0 mm
08:42 3.2 °C 1.1 °C 997.2 hPa WNW 7.7 km/h 13 km/h 86 % 0 mm
08:47 3.3 °C 1.2 °C 997.2 hPa WNW 7.6 km/h 16.7 km/h 86 % 0 mm
08:52 3.3 °C 1 °C 997.2 hPa WNW 8 km/h 16.7 km/h 85 % 0 mm
08:57 3.3 °C 1.1 °C 996.8 hPa WNW 3.4 km/h 11.1 km/h 85 % 0 mm
09:02 3.3 °C 1.1 °C 997.2 hPa NW 9.7 km/h 14.8 km/h 85 % 0 mm
09:07 3.4 °C 1.3 °C 996.8 hPa NW 7.1 km/h 14.8 km/h 86 % 0 mm
09:12 3.6 °C 1.3 °C 996.8 hPa NW 9 km/h 18.5 km/h 85 % 0 mm
09:17 3.6 °C 1.3 °C 996.8 hPa West 8.2 km/h 9.7 km/h 85 % 0 mm
09:22 3.8 °C 1.3 °C 996.8 hPa NW 1.6 km/h 13 km/h 84 % 0 mm
09:27 4 °C 1.6 °C 996.8 hPa West 1.1 km/h 6.4 km/h 84 % 0 mm
09:32 4.2 °C 1.6 °C 996.8 hPa NW 1.1 km/h 16.7 km/h 83 % 0 mm
09:37 4.6 °C 2.1 °C 996.8 hPa WNW 7.7 km/h 14.5 km/h 84 % 0 mm
09:42 4.7 °C 1.9 °C 997.2 hPa WNW 3.9 km/h 13 km/h 82 % 0 mm
09:47 4.8 °C 1.8 °C 997.2 hPa WNW 3.1 km/h 9.3 km/h 81 % 0 mm
09:52 4.9 °C 1.7 °C 996.8 hPa NW 4.3 km/h 7.4 km/h 80 % 0 mm
09:57 4.9 °C 1.6 °C 997.2 hPa NW 7.2 km/h 13 km/h 79 % 0 mm
10:02 5 °C 1.5 °C 996.8 hPa NW 6.4 km/h 11.1 km/h 78 % 0 mm
10:07 5.1 °C 1.6 °C 996.8 hPa SW 6 km/h 11.1 km/h 78 % 0 mm
10:13 5.2 °C 1.7 °C 996.8 hPa NW 4 km/h 12.9 km/h 78 % 0 mm
10:18 5.3 °C 1.4 °C 996.8 hPa West 8.4 km/h 18.5 km/h 76 % 0 mm
10:23 5.3 °C 1.6 °C 996.8 hPa WSW 8 km/h 11.3 km/h 77 % 0 mm
10:28 5.6 °C 1.7 °C 996.8 hPa WNW 0.3 km/h 13 km/h 76 % 0 mm
10:33 5.7 °C 1.6 °C 996.8 hPa West 9 km/h 18.5 km/h 75 % 0 mm
10:38 5.9 °C 1.7 °C 996.8 hPa WNW 6 km/h 14.8 km/h 74 % 0 mm
10:43 6.1 °C 1.6 °C 996.5 hPa WSW 8 km/h 12.9 km/h 73 % 0 mm
10:48 6.2 °C 1.6 °C 996.5 hPa NNW 8.2 km/h 16.1 km/h 72 % 0 mm
10:53 6.3 °C 1.6 °C 996.5 hPa WNW 6.8 km/h 13 km/h 72 % 0 mm
10:58 6.3 °C 1.4 °C 996.5 hPa West 9.5 km/h 16.7 km/h 71 % 0 mm
11:03 6.6 °C 1.7 °C 996.5 hPa WSW 5.6 km/h 7.4 km/h 71 % 0 mm
11:08 6.8 °C 2.1 °C 996.5 hPa WNW 3.5 km/h 6.4 km/h 72 % 0 mm
11:13 6.8 °C 1.7 °C 996.5 hPa West 6.6 km/h 14.5 km/h 70 % 0 mm
11:18 6.8 °C 1.7 °C 996.5 hPa WSW 6.9 km/h 14.5 km/h 70 % 0 mm
11:23 7.1 °C 1.9 °C 996.5 hPa WSW 6.9 km/h 9.7 km/h 70 % 0 mm
11:28 7.3 °C 2.2 °C 996.5 hPa SW 11.7 km/h 16.7 km/h 70 % 0 mm
11:33 7.3 °C 2.2 °C 996.5 hPa WSW 3.4 km/h 5.6 km/h 70 % 0 mm
11:38 7.4 °C 2.1 °C 996.2 hPa West 2.3 km/h 16.1 km/h 69 % 0 mm
11:43 7.5 °C 2.2 °C 996.2 hPa WSW 8 km/h 9.3 km/h 69 % 0 mm
11:49 7.4 °C 2.1 °C 996.2 hPa West 3.9 km/h 9.3 km/h 69 % 0 mm
11:54 7.2 °C 1.9 °C 996.2 hPa WNW 5.5 km/h 11.1 km/h 69 % 0 mm
11:59 7 °C 1.5 °C 996.2 hPa West 11.4 km/h 16.7 km/h 68 % 0 mm
12:04 7 °C 1.7 °C 996.2 hPa WNW 5.5 km/h 13 km/h 69 % 0 mm
12:09 7.1 °C 1.8 °C 995.8 hPa WSW 3.9 km/h 16.7 km/h 69 % 0 mm
12:14 7.3 °C 2.2 °C 995.8 hPa WSW 8.9 km/h 16.7 km/h 70 % 0 mm
12:19 7.4 °C 2.3 °C 995.8 hPa West 11.7 km/h 18.5 km/h 70 % 0 mm
12:24 7.4 °C 2.1 °C 995.8 hPa West 8.2 km/h 13 km/h 69 % 0 mm
12:29 7.6 °C 2.2 °C 995.8 hPa West 6.3 km/h 12.9 km/h 69 % 0 mm
12:34 7.5 °C 1.9 °C 995.8 hPa SW 11.3 km/h 18.5 km/h 68 % 0 mm
12:39 7.1 °C 1.4 °C 995.5 hPa West 14 km/h 18.5 km/h 67 % 0 mm
12:44 6.9 °C 1.6 °C 995.5 hPa WNW 10.8 km/h 16.1 km/h 69 % 0 mm
12:49 7 °C 2.1 °C 995.5 hPa NW 4 km/h 9.7 km/h 71 % 0 mm
12:54 7.2 °C 2.1 °C 995.5 hPa WNW 4.3 km/h 5.6 km/h 70 % 0 mm
12:59 7.2 °C 1.7 °C 995.5 hPa WSW 8.7 km/h 14.8 km/h 68 % 0 mm
13:04 7.3 °C 2 °C 995.1 hPa West 3.5 km/h 7.4 km/h 69 % 0 mm
13:09 7.6 °C 2.1 °C 995.1 hPa WNW 10.6 km/h 18.5 km/h 68 % 0 mm
13:14 7.7 °C 2.1 °C 995.1 hPa West 9.8 km/h 14.8 km/h 68 % 0 mm
13:19 7.7 °C 1.8 °C 995.1 hPa West 2.1 km/h 5.6 km/h 66 % 0 mm
13:24 7.6 °C 0.9 °C 995.1 hPa WNW 9 km/h 14.8 km/h 63 % 0 mm
13:29 7.3 °C 1.2 °C 995.1 hPa WNW 10.9 km/h 11.3 km/h 65 % 0 mm
13:35 7 °C 1.1 °C 995.5 hPa West 12.9 km/h 18.5 km/h 66 % 0 mm
13:40 6.7 °C 0.9 °C 995.1 hPa West 14 km/h 22.5 km/h 67 % 0 mm
13:45 6.3 °C 1.1 °C 995.1 hPa SW 11.3 km/h 18.5 km/h 69 % 0 mm
13:50 6.1 °C 1.1 °C 995.1 hPa WNW 10.6 km/h 18.5 km/h 70 % 0 mm
13:55 6 °C 0.9 °C 995.1 hPa SSW 7.1 km/h 16.7 km/h 70 % 0 mm
14:00 5.8 °C 1 °C 995.1 hPa West 5.5 km/h 13 km/h 71 % 0 mm
14:05 5.7 °C 0.9 °C 995.1 hPa SW 5.5 km/h 9.3 km/h 71 % 0 mm
14:10 5.7 °C 1 °C 995.1 hPa WSW 4.3 km/h 7.4 km/h 72 % 0 mm
14:15 5.6 °C 0.8 °C 995.1 hPa WNW 12.4 km/h 18.5 km/h 71 % 0 mm
14:20 5.4 °C 0.4 °C 995.1 hPa WNW 12.1 km/h 18.5 km/h 70 % 0 mm
14:25 5.3 °C 0.3 °C 995.1 hPa WSW 8.7 km/h 13 km/h 70 % 0 mm
14:30 5.3 °C 0.2 °C 995.1 hPa West 8.5 km/h 18.5 km/h 70 % 0 mm
14:35 5.3 °C 0.3 °C 995.1 hPa WNW 4.2 km/h 20.4 km/h 70 % 0 mm
14:40 5.4 °C 0.2 °C 995.1 hPa WSW 6.4 km/h 16.7 km/h 69 % 0 mm
14:45 5.4 °C 0.2 °C 995.1 hPa West 5.3 km/h 18.5 km/h 69 % 0 mm
14:50 5.4 °C 0.6 °C 995.1 hPa SW 1.9 km/h 9.7 km/h 71 % 0 mm
14:55 5.3 °C 0.3 °C 995.5 hPa WNW 7.4 km/h 11.1 km/h 70 % 0 mm
15:01 5.3 °C 0.2 °C 995.5 hPa West 8.5 km/h 18.5 km/h 70 % 0 mm
15:06 5.2 °C 0.2 °C 995.5 hPa SW 6 km/h 11.1 km/h 70 % 0 mm
15:11 5.1 °C 0.1 °C 995.5 hPa WSW 9 km/h 18.5 km/h 70 % 0 mm
15:16 5 °C 0.2 °C 995.1 hPa SW 2.7 km/h 5.6 km/h 71 % 0 mm
15:21 4.9 °C 0.1 °C 995.5 hPa WSW 5.6 km/h 18.5 km/h 71 % 0 mm
15:26 4.9 °C 0.1 °C 995.5 hPa WSW 9 km/h 18.5 km/h 71 % 0 mm
15:31 4.9 °C -0.1 °C 995.5 hPa West 10.6 km/h 18.5 km/h 70 % 0 mm
15:36 4.8 °C -0.2 °C 995.5 hPa WSW 11.1 km/h 22.2 km/h 70 % 0 mm
15:41 4.8 °C -0.2 °C 995.5 hPa West 10.9 km/h 14.8 km/h 70 % 0 mm
15:46 4.6 °C -0.4 °C 995.5 hPa West 6.9 km/h 14.8 km/h 70 % 0 mm
15:51 4.6 °C -0.4 °C 995.5 hPa WSW 6 km/h 14.8 km/h 70 % 0 mm
15:56 4.4 °C -0.6 °C 995.5 hPa WSW 5 km/h 11.3 km/h 70 % 0 mm
16:01 4.4 °C -0.8 °C 995.5 hPa WSW 6.3 km/h 13 km/h 69 % 0 mm
16:06 4.4 °C -0.8 °C 995.8 hPa WSW 9 km/h 16.7 km/h 69 % 0 mm
16:11 4.3 °C -0.8 °C 995.8 hPa WSW 7.9 km/h 9.3 km/h 69 % 0 mm
16:16 4.3 °C -0.8 °C 995.5 hPa WSW 4.2 km/h 11.1 km/h 69 % 0 mm
16:22 4.3 °C -0.8 °C 995.8 hPa WSW 6 km/h 12.9 km/h 69 % 0 mm
16:27 4.3 °C -1.1 °C 995.8 hPa West 7.6 km/h 13 km/h 68 % 0 mm
16:32 4.3 °C -1.3 °C 995.8 hPa WSW 7.7 km/h 11.3 km/h 67 % 0 mm
16:37 4.3 °C -1.3 °C 995.8 hPa West 10.3 km/h 16.7 km/h 67 % 0 mm
16:42 4.2 °C -1.4 °C 995.8 hPa WSW 8 km/h 14.8 km/h 67 % 0 mm
16:47 4.2 °C -1.2 °C 995.8 hPa WNW 6.6 km/h 14.8 km/h 68 % 0 mm
16:52 4.2 °C -1.2 °C 995.8 hPa NW 6 km/h 9.7 km/h 68 % 0 mm
16:57 4.2 °C -1.2 °C 995.8 hPa WNW 3.9 km/h 13 km/h 68 % 0 mm
17:02 4.2 °C -1 °C 996.2 hPa WNW 3.2 km/h 7.4 km/h 69 % 0 mm
17:07 4.1 °C -1.1 °C 996.2 hPa SW 9.3 km/h 16.7 km/h 69 % 0 mm
17:12 4.1 °C -1.1 °C 996.2 hPa West 10.3 km/h 18.5 km/h 69 % 0 mm
17:17 4.1 °C -1.1 °C 996.2 hPa WNW 6.3 km/h 11.3 km/h 69 % 0 mm
17:22 4 °C -1.2 °C 996.2 hPa WNW 6.1 km/h 7.4 km/h 69 % 0 mm
17:27 3.9 °C -1.1 °C 996.2 hPa West 6 km/h 14.8 km/h 70 % 0 mm
17:32 3.9 °C -1.3 °C 996.2 hPa WNW 6.8 km/h 11.1 km/h 69 % 0 mm
17:37 3.8 °C -1.3 °C 996.2 hPa West 9.5 km/h 11.1 km/h 69 % 0 mm
17:42 3.8 °C -1.6 °C 996.2 hPa SW 4.7 km/h 11.3 km/h 68 % 0 mm
17:47 3.8 °C -1.6 °C 996.2 hPa West 10.1 km/h 18.5 km/h 68 % 0 mm
17:52 3.7 °C -1.7 °C 996.2 hPa WSW 10.9 km/h 18.5 km/h 68 % 0 mm
17:57 3.7 °C -1.7 °C 996.5 hPa WSW 7.2 km/h 16.7 km/h 68 % 0 mm
18:03 3.7 °C -1.7 °C 996.2 hPa WSW 7.2 km/h 13 km/h 68 % 0 mm
18:08 3.7 °C -1.9 °C 996.5 hPa West 9.2 km/h 9.3 km/h 67 % 0 mm
18:13 3.7 °C -1.7 °C 996.5 hPa WSW 2.7 km/h 5.6 km/h 68 % 0 mm
18:18 3.6 °C -1.7 °C 996.8 hPa NW 6.1 km/h 11.1 km/h 68 % 0 mm
18:23 3.6 °C -1.9 °C 996.5 hPa WSW 7.9 km/h 16.7 km/h 67 % 0 mm
18:28 3.6 °C -2.2 °C 996.8 hPa West 6.9 km/h 14.5 km/h 66 % 0 mm
18:33 3.6 °C -2.6 °C 996.8 hPa WSW 10.5 km/h 16.7 km/h 64 % 0 mm
18:38 3.5 °C -2.7 °C 996.8 hPa WSW 6.8 km/h 16.7 km/h 64 % 0 mm
18:43 3.5 °C -2.7 °C 996.8 hPa West 6.8 km/h 13 km/h 64 % 0 mm
18:48 3.5 °C -2.7 °C 996.8 hPa WSW 10.8 km/h 16.7 km/h 64 % 0 mm
18:53 3.4 °C -2.7 °C 996.8 hPa WSW 0.6 km/h 5.6 km/h 64 % 0 mm
18:58 3.4 °C -2.7 °C 996.8 hPa WNW 4.7 km/h 9.3 km/h 64 % 0 mm
19:03 3.4 °C -2.7 °C 996.8 hPa WNW 6 km/h 8 km/h 64 % 0 mm
19:08 3.4 °C -2.8 °C 997.2 hPa WSW 5.6 km/h 7.4 km/h 64 % 0 mm
19:13 3.3 °C -2.8 °C 997.2 hPa West 5.3 km/h 18.5 km/h 64 % 0 mm
19:19 3.3 °C -2.8 °C 997.2 hPa West 10.8 km/h 18.5 km/h 64 % 0 mm
19:24 3.3 °C -2.8 °C 997.2 hPa NW 5.8 km/h 12.9 km/h 64 % 0 mm
19:29 3.3 °C -2.6 °C 997.2 hPa West 9.8 km/h 16.1 km/h 65 % 0 mm
19:34 3.3 °C -2.9 °C 997.2 hPa West 6.1 km/h 16.7 km/h 64 % 0 mm
19:39 3.3 °C -2.7 °C 997.2 hPa WSW 7.1 km/h 13 km/h 65 % 0 mm
19:44 3.2 °C -2.7 °C 997.2 hPa West 6.1 km/h 9.7 km/h 65 % 0 mm
19:49 3.2 °C -2.6 °C 997.2 hPa WNW 8 km/h 13 km/h 66 % 0 mm
19:54 3.2 °C -2.6 °C 997.2 hPa West 2.9 km/h 5.6 km/h 66 % 0 mm
19:59 3.1 °C -2.6 °C 997.2 hPa WSW 6.8 km/h 9.3 km/h 66 % 0 mm
20:04 3.1 °C -2.7 °C 997.2 hPa WNW 6.1 km/h 12.9 km/h 66 % 0 mm
20:09 3.1 °C -2.7 °C 997.5 hPa WNW 2.9 km/h 11.1 km/h 66 % 0 mm
20:14 3 °C -2.7 °C 997.2 hPa West 9.2 km/h 14.8 km/h 66 % 0 mm
20:19 2.9 °C -2.8 °C 997.2 hPa WNW 9.7 km/h 16.7 km/h 66 % 0 mm
20:24 2.9 °C -2.7 °C 997.5 hPa WNW 5.8 km/h 9.7 km/h 67 % 0 mm
20:29 2.9 °C -2.4 °C 997.2 hPa WSW 3.4 km/h 8 km/h 68 % 0 mm
20:34 2.8 °C -2.1 °C 997.2 hPa WSW 6 km/h 7.4 km/h 70 % 0 mm
20:39 2.8 °C -2.2 °C 997.2 hPa West 3.9 km/h 9.3 km/h 70 % 0 mm
20:44 2.7 °C -2.2 °C 997.2 hPa WSW 4 km/h 9.7 km/h 70 % 0 mm
20:50 2.7 °C -2.1 °C 997.2 hPa WNW 7.1 km/h 9.3 km/h 71 % 0 mm
20:55 2.6 °C -2.1 °C 997.2 hPa West 1.8 km/h 9.3 km/h 71 % 0 mm
21:00 2.6 °C -2.4 °C 997.2 hPa WSW 4 km/h 9.3 km/h 70 % 0 mm
21:05 2.5 °C -2.4 °C 997.2 hPa West 4.7 km/h 14.8 km/h 70 % 0 mm
21:10 2.5 °C -2.4 °C 997.5 hPa West 3.1 km/h 9.7 km/h 70 % 0 mm
21:15 2.4 °C -2.5 °C 997.2 hPa West 8.2 km/h 13 km/h 70 % 0 mm
21:20 2.4 °C -2.3 °C 997.2 hPa SW 10 km/h 13 km/h 71 % 0 mm
21:25 2.4 °C -2.2 °C 997.2 hPa SW 6.6 km/h 14.8 km/h 72 % 0 mm
21:30 2.4 °C -1.9 °C 997.2 hPa West 8.7 km/h 14.8 km/h 73 % 0 mm
21:35 2.4 °C -1.9 °C 997.2 hPa WSW 3.1 km/h 8 km/h 73 % 0 mm
21:40 2.4 °C -1.8 °C 996.8 hPa West 6 km/h 13 km/h 74 % 0 mm
21:45 2.4 °C -1.8 °C 997.2 hPa WSW 6.6 km/h 11.1 km/h 74 % 0 mm
21:50 2.4 °C -1.8 °C 997.2 hPa West 10.6 km/h 16.7 km/h 74 % 0 mm
21:55 2.4 °C -1.8 °C 996.8 hPa SSW 9.3 km/h 13 km/h 74 % 0 mm
22:00 2.3 °C -1.8 °C 996.8 hPa WNW 9.7 km/h 16.7 km/h 74 % 0 mm
22:05 2.3 °C -1.8 °C 996.8 hPa WNW 9 km/h 14.8 km/h 74 % 0 mm
22:10 2.3 °C -1.9 °C 996.8 hPa WSW 8 km/h 19.3 km/h 74 % 0 mm
22:15 2.3 °C -2.1 °C 996.8 hPa WSW 3.2 km/h 14.5 km/h 73 % 0 mm
22:16 2.3 °C -2 °C 996.8 hPa WNW 9.5 km/h 14.8 km/h 73 % 0 mm
22:21 2.3 °C -2.1 °C 996.8 hPa West 1.6 km/h 9.3 km/h 73 % 0 mm
22:26 2.3 °C -2.1 °C 996.8 hPa WNW 8.4 km/h 18.5 km/h 73 % 0 mm
22:31 2.3 °C -2.3 °C 996.8 hPa WNW 8.5 km/h 18.5 km/h 72 % 0 mm
22:37 2.3 °C -2.4 °C 996.5 hPa WSW 7.7 km/h 16.7 km/h 71 % 0 mm
22:42 2.2 °C -2.3 °C 996.5 hPa West 12.9 km/h 22.2 km/h 72 % 0 mm
22:47 2.2 °C -2.5 °C 996.5 hPa WSW 5.1 km/h 14.8 km/h 71 % 0 mm
22:52 2.2 °C -2.5 °C 996.5 hPa WSW 9.8 km/h 16.7 km/h 71 % 0 mm
22:57 2.2 °C -2.6 °C 996.5 hPa WNW 5.1 km/h 13 km/h 71 % 0 mm
23:02 2.2 °C -2.4 °C 996.5 hPa WSW 10.9 km/h 18.5 km/h 72 % 0 mm
23:07 2.2 °C -2.4 °C 996.2 hPa West 11.4 km/h 14.8 km/h 72 % 0 mm
23:12 2.1 °C -2.4 °C 996.2 hPa West 2.7 km/h 14.5 km/h 72 % 0 mm
23:17 2.1 °C -2.4 °C 996.2 hPa West 5.3 km/h 16.7 km/h 72 % 0 mm
23:22 2.1 °C -2.3 °C 996.2 hPa West 4 km/h 9.3 km/h 73 % 0 mm
23:27 2 °C -2.3 °C 996.2 hPa WSW 6 km/h 13 km/h 73 % 0 mm
23:32 1.9 °C -2.4 °C 996.2 hPa NW 7.1 km/h 9.7 km/h 73 % 0 mm
23:37 1.9 °C -2.4 °C 996.2 hPa West 11.4 km/h 16.7 km/h 73 % 0 mm
23:42 1.9 °C -2.4 °C 996.2 hPa West 5.3 km/h 7.4 km/h 73 % 0 mm
23:47 1.9 °C -2.4 °C 996.2 hPa WSW 5.3 km/h 11.1 km/h 73 % 0 mm
23:52 1.8 °C -2.5 °C 996.2 hPa WSW 4.2 km/h 9.3 km/h 73 % 0 mm
23:57 1.8 °C -2.3 °C 996.2 hPa WNW 4.8 km/h 7.4 km/h 74 % 0 mm
Crab Meadow Weather
Compliments of Weather Underground - 3 mb

Script developed by  Jim McMurry - jmcmurry@mwt.net Adapted for the template by  Wim van der Kuil - Leuven-Template.eu

Weather Terms: Tornado Warning - Strong rotation in a thunderstorm is indicated by Doppler radar or a tornado is sighted by skywarn spotters. These warnings are issued on a county by county basis by the local Weather Forecast office in Upton.